1 Minute Report
Date Time Wind Direction Wind Speed Wind Gust Wind Variable Altimeter Temperature Dewpoint Relative Humidity Visibility Ceiling Precip Present Weather Density Alt Wind Chill Heat Index
17/06/27 19:14 000 00 N/A N/A 29.97 53(F), 12(C) 47(F), 8(C) 77% 10 SCT028 BKN060 OVC080 P0001 N/A N/A 53 F N/A 3974
17/06/27 19:13 000 00 N/A N/A 29.97 53(F), 12(C) 47(F), 8(C) 77% 10 SCT028 BKN060 OVC080 P0001 N/A N/A 53 F N/A 3973
17/06/27 19:12 000 00 N/A N/A 29.97 53(F), 12(C) 47(F), 8(C) 77% 10 SCT028 BKN060 OVC080 P0001 N/A N/A 53 F N/A 3972
17/06/27 19:11 000 00 N/A N/A 29.97 53(F), 12(C) 47(F), 8(C) 77% 10 SCT028 BKN060 OVC080 P0001 N/A N/A 53 F N/A 3971
17/06/27 19:10 000 00 N/A N/A 29.97 53(F), 12(C) 47(F), 8(C) 77% 7 SCT028 BKN060 OVC080 P0001 N/A N/A 53 F N/A 3970
17/06/27 19:09 170 03 N/A N/A 29.97 53(F), 12(C) 47(F), 8(C) 77% 7 SCT028 BKN060 OVC080 P0001 N/A N/A 53 F N/A 3969
17/06/27 19:08 190 03 N/A N/A 29.97 53(F), 12(C) 47(F), 8(C) 77% 7 SCT028 BKN060 OVC080 P0001 N/A N/A 53 F N/A 3968
17/06/27 19:07 210 03 N/A N/A 29.97 53(F), 12(C) 47(F), 8(C) 77% 5 SCT028 SCT043 OVC060 P0001 N/A N/A 53 F N/A 3967
17/06/27 19:06 000 00 N/A N/A 29.97 52(F), 11(C) 47(F), 8(C) 82% 4 SCT028 SCT043 OVC060 P0001 N/A N/A 52 F N/A 3966
17/06/27 19:05 000 00 N/A N/A 29.97 52(F), 11(C) 46(F), 8(C) 82% 4 SCT026 SCT046 OVC060 P0001 N/A N/A 52 F N/A 3965
17/06/27 19:04 000 00 N/A N/A 29.97 52(F), 11(C) 46(F), 8(C) 82% 4 SCT026 SCT046 OVC060 P0001 N/A N/A 52 F N/A 3964
17/06/27 19:03 000 00 N/A N/A 29.98 52(F), 11(C) 46(F), 8(C) 82% 4 SCT026 SCT046 OVC060 P0001 N/A N/A 52 F N/A 3963
17/06/27 19:02 000 00 N/A N/A 29.98 52(F), 11(C) 46(F), 8(C) 82% 4 SCT026 SCT048 OVC060 P0001 N/A N/A 52 F N/A 3962
17/06/27 19:01 000 00 N/A N/A 29.98 52(F), 11(C) 46(F), 8(C) 82% 4 SCT048 OVC060 P0001 N/A N/A 52 F N/A 3961
17/06/27 19:00 000 00 N/A N/A 29.98 52(F), 11(C) 46(F), 8(C) 82% 4 OVC060 P0013 N/A N/A 52 F N/A 3960
17/06/27 18:59 000 00 N/A N/A 29.98 52(F), 11(C) 46(F), 8(C) 82% 4 SCT048 OVC060 P0013 N/A N/A 52 F N/A 3959
17/06/27 18:58 000 00 N/A N/A 29.98 52(F), 11(C) 46(F), 8(C) 82% 5 SCT048 OVC060 P0013 N/A N/A 52 F N/A 3958
17/06/27 18:57 000 00 N/A N/A 29.99 51(F), 11(C) 46(F), 8(C) 82% 5 SCT048 OVC060 P0012 N/A N/A 51 F N/A 3957
17/06/27 18:56 000 00 N/A N/A 29.99 51(F), 11(C) 46(F), 8(C) 82% 7 OVC060 P0012 N/A N/A 51 F N/A 3956
17/06/27 18:55 000 00 N/A N/A 29.99 51(F), 11(C) 46(F), 8(C) 82% 7 OVC060 P0012 N/A N/A 51 F N/A 3955
17/06/27 18:54 000 00 N/A N/A 29.99 51(F), 11(C) 46(F), 8(C) 82% 7 SCT048 OVC060 P0011 N/A N/A 51 F N/A 3954
17/06/27 18:53 000 00 N/A N/A 29.99 51(F), 11(C) 46(F), 8(C) 82% 7 SCT048 OVC060 P0011 N/A N/A 51 F N/A 3953
17/06/27 18:52 000 00 N/A N/A 29.99 51(F), 11(C) 46(F), 8(C) 82% 7 SCT048 OVC060 P0011 N/A N/A 51 F N/A 3952
17/06/27 18:51 000 00 N/A N/A 29.99 51(F), 11(C) 46(F), 8(C) 82% 10 SCT048 OVC060 P0011 N/A N/A 51 F N/A 3951
17/06/27 18:50 270 03 N/A N/A 29.99 51(F), 11(C) 46(F), 8(C) 82% 10 SCT048 OVC060 P0010 N/A N/A 51 F N/A 3950
17/06/27 18:49 290 04 N/A N/A 29.99 51(F), 11(C) 46(F), 8(C) 82% 10 SCT048 OVC060 P0010 N/A N/A 51 F N/A 3949
17/06/27 18:48 270 04 N/A N/A 29.99 51(F), 11(C) 46(F), 8(C) 82% 10 SCT048 OVC060 P0010 N/A N/A 51 F N/A 3948
17/06/27 18:47 270 03 N/A N/A 29.99 51(F), 11(C) 46(F), 8(C) 82% 7 SCT048 OVC060 P0010 N/A N/A 51 F N/A 3947
17/06/27 18:46 270 04 N/A N/A 29.99 51(F), 11(C) 46(F), 8(C) 82% 7 SCT048 OVC060 P0010 N/A N/A 51 F N/A 3946
17/06/27 18:45 280 04 N/A N/A 29.99 51(F), 11(C) 46(F), 8(C) 82% 7 SCT048 OVC060 P0010 N/A N/A 51 F N/A 3945
17/06/27 18:44 280 04 N/A N/A 29.99 51(F), 11(C) 46(F), 8(C) 82% 7 SCT048 OVC060 P0010 N/A N/A 51 F N/A 3944
17/06/27 18:43 270 03 N/A N/A 29.99 51(F), 11(C) 46(F), 8(C) 82% 5 SCT042 OVC060 P0010 N/A N/A 51 F N/A 3943
17/06/27 18:42 280 03 N/A N/A 29.99 51(F), 11(C) 46(F), 8(C) 82% 7 SCT042 BKN060 OVC070 P0010 N/A N/A 51 F N/A 3942
17/06/27 18:41 270 03 N/A N/A 29.99 51(F), 11(C) 46(F), 8(C) 82% 7 SCT036 SCT048 OVC060 P0010 N/A N/A 51 F N/A 3941
17/06/27 18:40 260 03 N/A N/A 29.99 51(F), 11(C) 46(F), 8(C) 82% 7 SCT033 SCT048 OVC060 P0009 N/A N/A 51 F N/A 3940
17/06/27 18:39 270 04 N/A N/A 29.99 51(F), 11(C) 45(F), 7(C) 76% 7 SCT033 SCT048 OVC060 P0009 N/A N/A 51 F N/A 3939
17/06/27 18:38 280 05 N/A N/A 29.99 51(F), 11(C) 45(F), 7(C) 76% 7 SCT033 SCT048 OVC060 P0009 N/A N/A 49 F N/A 3938
17/06/27 18:37 300 04 N/A N/A 29.99 51(F), 11(C) 45(F), 7(C) 76% 7 SCT033 SCT048 OVC060 P0009 N/A N/A 51 F N/A 3937
17/06/27 18:36 290 03 N/A N/A 29.99 51(F), 11(C) 45(F), 7(C) 76% 7 SCT033 SCT048 OVC060 P0009 N/A N/A 51 F N/A 3936
17/06/27 18:35 290 04 N/A N/A 29.99 50(F), 10(C) 45(F), 7(C) 82% 7 SCT033 BKN060 OVC090 P0008 N/A N/A 50 F N/A 3935
17/06/27 18:34 290 04 N/A N/A 30.00 50(F), 10(C) 45(F), 7(C) 82% 7 SCT033 SCT048 OVC060 P0008 N/A N/A 50 F N/A 3934
17/06/27 18:33 290 05 15 N/A 30.00 50(F), 10(C) 45(F), 7(C) 82% 7 SCT033 BKN060 OVC090 P0008 N/A N/A 48 F N/A 3933
17/06/27 18:32 290 05 15 N/A 30.00 50(F), 10(C) 45(F), 7(C) 82% 7 SCT033 SCT048 OVC070 P0007 N/A N/A 48 F N/A 3932
17/06/27 18:31 290 06 15 N/A 29.99 50(F), 10(C) 45(F), 7(C) 82% 5 SCT033 BKN065 OVC070 P0007 N/A N/A 48 F N/A 3931
17/06/27 18:30 290 07 15 N/A 29.99 50(F), 10(C) 45(F), 7(C) 82% 5 SCT033 BKN065 OVC090 P0007 N/A N/A 47 F N/A 3930
17/06/27 18:29 290 06 22 N/A 29.99 50(F), 10(C) 45(F), 7(C) 82% 5 SCT033 BKN065 OVC090 P0007 N/A N/A 48 F N/A 3929
17/06/27 18:28 300 06 22 N/A 29.99 51(F), 11(C) 45(F), 7(C) 76% 5 SCT033 BKN065 OVC090 P0007 N/A N/A 49 F N/A 3928
17/06/27 18:27 300 06 22 N/A 29.99 51(F), 11(C) 45(F), 7(C) 76% 5 SCT033 BKN065 OVC090 P0006 N/A N/A 49 F N/A 3927
17/06/27 18:26 300 08 22 N/A 29.98 51(F), 11(C) 45(F), 7(C) 76% 5 SCT033 BKN065 OVC090 P0006 N/A N/A 48 F N/A 3926
17/06/27 18:25 300 09 22 N/A 29.98 51(F), 11(C) 45(F), 7(C) 76% 5 SCT033 BKN065 OVC080 P0006 N/A N/A 48 F N/A 3925
17/06/27 18:24 300 10 22 N/A 29.97 51(F), 11(C) 45(F), 7(C) 76% 5 SCT033 BKN050 OVC080 P0006 N/A N/A 47 F N/A 3924
17/06/27 18:23 310 11 22 N/A 29.97 51(F), 11(C) 45(F), 7(C) 76% 7 SCT035 BKN050 OVC080 P0005 N/A N/A 47 F N/A 3923
17/06/27 18:22 310 11 22 N/A 29.97 51(F), 11(C) 45(F), 7(C) 76% 7 SCT035 BKN050 OVC080 P0004 N/A N/A 47 F N/A 3922
17/06/27 18:21 310 13 26 N/A 29.96 52(F), 11(C) 45(F), 7(C) 76% 7 SCT035 BKN050 OVC090 P0004 N/A N/A 48 F N/A 3921
17/06/27 18:20 310 14 26 N/A 29.96 52(F), 11(C) 45(F), 7(C) 76% 7 SCT033 BKN050 OVC090 P0004 N/A N/A 47 F N/A 3920
17/06/27 18:19 310 14 26 N/A 29.96 52(F), 11(C) 45(F), 7(C) 76% 7 SCT030 BKN050 OVC065 P0003 N/A N/A 47 F N/A 3919
17/06/27 18:18 310 16 26 N/A 29.96 53(F), 12(C) 45(F), 7(C) 71% 7 SCT030 BKN050 OVC080 P0003 N/A N/A 48 F N/A 3918
17/06/27 18:17 310 15 26 N/A 29.96 54(F), 12(C) 45(F), 7(C) 71% 10 SCT030 BKN046 OVC080 P0002 N/A N/A 50 F N/A 3917
17/06/27 18:16 310 14 26 N/A 29.96 55(F), 13(C) 45(F), 7(C) 67% 10 SCT032 BKN048 OVC080 P0002 N/A N/A 51 F N/A 3916
17/06/27 18:15 320 15 26 N/A 29.96 56(F), 13(C) 46(F), 8(C) 72% 10 SCT034 BKN050 OVC080 P0002 N/A N/A 52 F N/A 3915
17/06/27 18:14 320 15 26 270V340 29.97 57(F), 14(C) 46(F), 8(C) 67% 10 SCT032 BKN050 OVC080 P0002 N/A N/A 54 F N/A 3914
17/06/27 18:13 310 13 26 270V330 29.97 58(F), 14(C) 47(F), 8(C) 67% 10 SCT032 BKN065 OVC080 P0002 N/A N/A 55 F N/A 3913
17/06/27 18:12 300 14 26 N/A 29.97 59(F), 15(C) 48(F), 9(C) 67% 7 SCT030 BKN065 OVC110 P0002 N/A N/A 56 F N/A 3912
17/06/27 18:11 300 17 26 N/A 29.97 59(F), 15(C) 48(F), 9(C) 67% 10 SCT028 BKN065 OVC110 P0001 N/A N/A 56 F N/A 3911
17/06/27 18:10 300 15 25 270V330 29.95 59(F), 15(C) 47(F), 8(C) 63% 10 SCT028 BKN065 OVC110 P0001 N/A N/A 56 F N/A 3910
17/06/27 18:09 290 10 15 N/A 29.95 60(F), 16(C) 47(F), 8(C) 59% 10 SCT028 BKN065 OVC110 P0001 N/A N/A 58 F N/A 3909
17/06/27 18:08 290 07 N/A N/A 29.94 60(F), 16(C) 47(F), 8(C) 59% 10 SCT028 BKN065 OVC110 P0001 N/A N/A 59 F N/A 3908
17/06/27 18:07 290 06 N/A N/A 29.94 60(F), 16(C) 47(F), 8(C) 59% 10 SCT028 BKN065 OVC110 P0001 N/A N/A 60 F N/A 3907
17/06/27 18:06 290 06 N/A 250V320 29.94 60(F), 16(C) 48(F), 9(C) 63% 10 SCT028 BKN065 OVC110 P0001 N/A N/A 60 F N/A 3906
17/06/27 18:05 280 07 N/A 250V310 29.93 61(F), 16(C) 49(F), 9(C) 63% 10 SCT028 BKN065 OVC110 P0001 N/A N/A 60 F N/A 3905
17/06/27 18:04 280 08 N/A N/A 29.93 61(F), 16(C) 50(F), 10(C) 68% 10 SCT028 BKN065 OVC110 P0001 N/A N/A 60 F N/A 3904
17/06/27 18:03 280 07 N/A N/A 29.93 61(F), 16(C) 50(F), 10(C) 68% 10 SCT028 BKN065 OVC110 N/A N/A N/A 60 F N/A 3903
17/06/27 18:02 270 06 N/A N/A 29.93 61(F), 16(C) 51(F), 11(C) 72% 10 SCT028 BKN065 OVC110 N/A N/A N/A 61 F N/A 3902
17/06/27 18:01 260 06 N/A N/A 29.93 61(F), 16(C) 51(F), 11(C) 72% 10 SCT028 BKN065 OVC110 N/A N/A N/A 61 F N/A 3901
17/06/27 18:00 260 04 N/A N/A 29.93 61(F), 16(C) 51(F), 11(C) 72% 10 SCT028 BKN065 OVC110 P0002 N/A N/A 61 F N/A 3900
17/06/27 17:59 250 03 N/A N/A 29.93 61(F), 16(C) 50(F), 10(C) 68% 10 SCT028 BKN065 OVC110 P0002 N/A N/A 61 F N/A 3899
17/06/27 17:58 250 04 N/A N/A 29.93 61(F), 16(C) 50(F), 10(C) 68% 10 SCT031 BKN065 OVC110 P0002 N/A N/A 61 F N/A 3898
17/06/27 17:57 230 04 N/A N/A 29.93 61(F), 16(C) 50(F), 10(C) 68% 10 SCT033 BKN065 OVC110 P0002 N/A N/A 61 F N/A 3897
17/06/27 17:56 220 04 N/A N/A 29.93 62(F), 17(C) 50(F), 10(C) 63% 10 SCT033 BKN065 OVC110 P0002 N/A N/A 62 F N/A 3896
17/06/27 17:55 220 04 N/A N/A 29.93 62(F), 17(C) 50(F), 10(C) 63% 10 SCT033 BKN065 OVC110 P0002 N/A N/A 62 F N/A 3895
17/06/27 17:54 220 05 N/A N/A 29.92 62(F), 17(C) 50(F), 10(C) 63% 10 SCT033 BKN065 OVC110 P0002 N/A N/A 62 F N/A 3894
17/06/27 17:53 210 04 N/A N/A 29.92 62(F), 17(C) 50(F), 10(C) 63% 10 SCT033 SCT049 BKN065 P0002 N/A N/A 62 F N/A 3893
17/06/27 17:52 210 03 N/A N/A 29.92 62(F), 17(C) 50(F), 10(C) 63% 10 SCT033 BKN049 BKN065 P0002 N/A N/A 62 F N/A 3892
17/06/27 17:51 210 03 N/A N/A 29.92 62(F), 17(C) 50(F), 10(C) 63% 10 SCT033 BKN049 BKN065 P0002 N/A N/A 62 F N/A 3891
17/06/27 17:50 210 03 N/A N/A 29.93 62(F), 17(C) 50(F), 10(C) 63% 10 SCT027 SCT035 BKN049 P0002 N/A N/A 62 F N/A 3890
17/06/27 17:49 210 04 N/A N/A 29.93 62(F), 17(C) 49(F), 9(C) 59% 10 SCT035 SCT044 BKN055 P0002 N/A N/A 62 F N/A 3889
17/06/27 17:48 200 04 N/A N/A 29.93 62(F), 17(C) 49(F), 9(C) 59% 10 SCT035 SCT044 BKN055 P0002 N/A N/A 62 F N/A 3888
17/06/27 17:47 200 05 N/A N/A 29.92 62(F), 17(C) 49(F), 9(C) 59% 10 SCT035 BKN055 OVC110 P0002 N/A N/A 62 F N/A 3887
17/06/27 17:46 210 04 N/A N/A 29.92 62(F), 17(C) 49(F), 9(C) 59% 10 SCT035 BKN048 OVC110 P0002 N/A N/A 62 F N/A 3886
17/06/27 17:45 220 04 N/A N/A 29.92 61(F), 16(C) 49(F), 9(C) 63% 7 SCT029 BKN048 OVC070 P0002 N/A N/A 61 F N/A 3885
17/06/27 17:44 220 04 N/A N/A 29.92 61(F), 16(C) 49(F), 9(C) 63% 7 SCT029 BKN048 OVC070 P0002 N/A N/A 61 F N/A 3884
17/06/27 17:43 210 04 N/A N/A 29.93 61(F), 16(C) 49(F), 9(C) 63% 7 SCT029 BKN048 OVC070 P0002 N/A N/A 61 F N/A 3883
17/06/27 17:42 220 03 N/A N/A 29.93 60(F), 16(C) 48(F), 9(C) 63% 7 SCT037 BKN045 OVC070 P0002 N/A N/A 60 F N/A 3882
17/06/27 17:41 220 03 N/A N/A 29.93 60(F), 16(C) 48(F), 9(C) 63% 7 SCT037 BKN045 OVC070 P0002 N/A N/A 60 F N/A 3881
17/06/27 17:40 210 03 N/A N/A 29.93 60(F), 16(C) 48(F), 9(C) 63% 7 SCT034 BKN041 OVC070 P0002 N/A N/A 60 F N/A 3880
17/06/27 17:39 210 03 N/A N/A 29.93 60(F), 16(C) 48(F), 9(C) 63% 7 SCT034 BKN041 OVC070 P0002 N/A N/A 60 F N/A 3879
17/06/27 17:38 210 03 N/A N/A 29.93 61(F), 16(C) 48(F), 9(C) 63% 7 BKN038 BKN050 OVC070 P0002 N/A N/A 61 F N/A 3878
17/06/27 17:37 210 04 N/A N/A 29.94 61(F), 16(C) 48(F), 9(C) 63% 7 SCT034 BKN041 OVC070 P0002 N/A N/A 61 F N/A 3877
17/06/27 17:36 210 07 N/A N/A 29.94 61(F), 16(C) 49(F), 9(C) 63% 7 BKN036 BKN046 OVC070 P0002 N/A N/A 60 F N/A 3876
17/06/27 17:35 220 08 N/A N/A 29.94 62(F), 17(C) 49(F), 9(C) 59% 10 BKN036 BKN046 OVC070 P0002 N/A N/A 61 F N/A 3875
17/06/27 17:34 210 08 N/A N/A 29.93 62(F), 17(C) 48(F), 9(C) 59% 10 BKN036 BKN046 OVC070 P0001 N/A N/A 61 F N/A 3874
17/06/27 17:33 200 07 N/A N/A 29.93 62(F), 17(C) 48(F), 9(C) 59% 10 BKN036 BKN046 OVC070 N/A N/A N/A 62 F N/A 3873
17/06/27 17:32 200 06 N/A N/A 29.93 63(F), 17(C) 48(F), 9(C) 59% 10 BKN036 BKN046 OVC070 N/A N/A N/A 63 F N/A 3872
17/06/27 17:31 200 06 N/A N/A 29.93 63(F), 17(C) 48(F), 9(C) 59% 10 BKN036 BKN050 OVC070 N/A N/A N/A 63 F N/A 3871
17/06/27 17:30 200 06 N/A N/A 29.93 63(F), 17(C) 48(F), 9(C) 59% 10 BKN036 BKN050 OVC070 N/A N/A N/A 63 F N/A 3870
17/06/27 17:29 190 08 N/A N/A 29.93 63(F), 17(C) 48(F), 9(C) 59% 10 BKN036 BKN046 OVC070 N/A N/A N/A 63 F N/A 3869
17/06/27 17:28 190 08 N/A N/A 29.93 63(F), 17(C) 48(F), 9(C) 59% 10 BKN036 BKN050 OVC070 N/A N/A N/A 63 F N/A 3868
17/06/27 17:27 200 06 N/A N/A 29.93 64(F), 18(C) 48(F), 9(C) 56% 10 BKN036 BKN047 OVC070 N/A N/A N/A 64 F N/A 3867
17/06/27 17:26 210 05 N/A N/A 29.93 64(F), 18(C) 49(F), 9(C) 56% 10 BKN036 BKN050 OVC100 N/A N/A N/A 65 F N/A 3866
17/06/27 17:25 220 05 N/A N/A 29.93 64(F), 18(C) 49(F), 9(C) 56% 10 BKN036 BKN047 OVC100 N/A N/A N/A 65 F N/A 3865
17/06/27 17:24 210 04 N/A N/A 29.93 64(F), 18(C) 50(F), 10(C) 60% 10 BKN036 BKN047 OVC100 N/A N/A N/A 64 F N/A 3864
17/06/27 17:23 200 04 N/A N/A 29.93 64(F), 18(C) 50(F), 10(C) 60% 10 SCT036 BKN047 OVC100 N/A N/A N/A 64 F N/A 3863
17/06/27 17:22 180 06 N/A N/A 29.93 64(F), 18(C) 50(F), 10(C) 60% 10 SCT036 BKN047 OVC100 N/A N/A N/A 64 F N/A 3862
17/06/27 17:21 170 08 N/A N/A 29.93 64(F), 18(C) 50(F), 10(C) 60% 10 SCT031 BKN040 OVC100 N/A N/A N/A 64 F N/A 3861
17/06/27 17:20 160 07 N/A N/A 29.93 64(F), 18(C) 50(F), 10(C) 60% 10 SCT031 BKN040 OVC100 N/A N/A N/A 64 F N/A 3860
17/06/27 17:19 160 05 N/A N/A 29.93 64(F), 18(C) 50(F), 10(C) 60% 10 SCT036 BKN047 OVC100 N/A N/A N/A 65 F N/A 3859
17/06/27 17:18 160 06 N/A N/A 29.93 64(F), 18(C) 49(F), 9(C) 56% 10 SCT030 SCT041 BKN050 N/A N/A N/A 64 F N/A 3858
17/06/27 17:17 150 05 N/A N/A 29.94 64(F), 18(C) 50(F), 10(C) 60% 10 SCT030 SCT041 BKN050 N/A N/A N/A 65 F N/A 3857
17/06/27 17:16 160 04 N/A N/A 29.94 64(F), 18(C) 50(F), 10(C) 60% 10 SCT030 SCT041 BKN050 N/A N/A N/A 64 F N/A 3856
17/06/27 17:15 140 06 N/A N/A 29.94 64(F), 18(C) 50(F), 10(C) 60% 10 SCT030 SCT046 BKN060 N/A N/A N/A 64 F N/A 3855
17/06/27 17:14 130 06 N/A N/A 29.94 64(F), 18(C) 50(F), 10(C) 60% 10 SCT034 SCT050 BKN060 N/A N/A N/A 64 F N/A 3854